www.pogodaiklimat.ru

Погода и климат >> Архив погоды >> Россия >> Краснодарский край >> Приморско-Ахтарск


АРХИВ ПОГОДЫ в Приморско-Ахтарске

Время (UTC), дата Ветер
(напр.,м/с)
 
Видим.   Явления Облачность Т
(С)
Тd
(С)
f
(%)
Тe
(С)
Тes
(С)
Комфортность P
(гПа)
Po
(гПа)
Тmin
(С)
Tmax
(С)
R
(мм)
R24
(мм)
S
(см)
12 6.12 СЗ 1 1000 м дымка {туман} 10/10 300 м
[Sc]
+1.5 +0.9 96 -1 -1 по сезону 1014.6 1014.1
15 6.12 штиль 0 1000 м дымка {морось} 10/10 300 м
[Sc]
+1.3 +0.8 96 0 0 по сезону 1015.5 1015.0 +2.4 0.3
18 6.12 СЗ 1 1000 м дымка {морось} 10/10 300 м
[Sc]
+1.3 +0.7 96 -1 -1 по сезону 1015.0 1014.5
21 6.12 штиль 0 500 м туман ?/? +1.3 +0.8 96 0 0 по сезону 1015.0 1014.5
00 7.12 штиль 0 500 м слабый дождь {туман} ?/? +1.5 +1.0 96 0 0 по сезону 1014.8 1014.3
03 7.12 З 1 500 м слабый снег туман ?/? +0.3 -0.2 96 -2 -2 по сезону 1014.6 1014.1 +0.3 2
06 7.12 штиль 0 4000 м слабый снег {туман} 10/10 300 м
[Sc]
+0.5 0.0 96 -1 -1 по сезону 1015.7 1015.2 +0.2
09 7.12 З 1 4000 м дымка {снег} 10/10 600 м
[Sc]
+1.5 +0.9 96 -1 -1 по сезону 1015.5 1015.0
12 7.12 З 1 4000 м дымка {снег} 10/10 600 м
[Sc]
+1.7 +0.1 89 -0 -0 по сезону 1016.3 1015.8
15 7.12 штиль 0 4000 м дымка 10/10 600 м
[Sc]
+1.7 +0.1 89 +1 +1 по сезону 1016.3 1016.3 +1.9 2
18 7.12 СЗ 2 4000 м дымка 10/10 600 м
[Sc]
+1.5 -0.3 88 -2 -2 по сезону 1017.2 1016.7
21 7.12 З 1 10 км 10/10 600 м
[Sc]
+1.5 -0.8 85 -0 -0 по сезону 1017.7 1017.1
00 8.12 штиль 0 4000 м дымка 10/10 600 м
[Sc]
+1.1 -0.7 88 -0 -0 по сезону 1018.2 1017.7
03 8.12 штиль 0 4000 м дымка 10/10 600 м
[Sc]
+1.2 -0.9 86 0 0 по сезону 1018.4 1017.9 +0.9
06 8.12 штиль 0 4000 м дымка 10/10 600 м
[Sc]
+1.0 -0.6 89 -0 -0 по сезону 1019.9 1019.4 +0.9
09 8.12 штиль 0 10 км 8/8 600 м
[Cu hum]
+2.8 -1.4 74 +2 +3 по сезону 1020.1 1019.6
12 8.12 штиль 0 10 км ясно +2.6 -2.0 72 +2 +3 по сезону 1019.8 1019.3
15 8.12 штиль 0 10 км 9/0
[Ac trans]
-0.2 -2.2 86 -1 -1 по сезону 1020.4 1019.9 +3.5
18 8.12 штиль 0 10 км 10/10 600 м
[Sc]
+1.1 -2.2 79 0 0 по сезону 1020.3 1019.8
21 8.12 В 1 10 км 10/10 600 м
[Sc]
+0.8 -1.5 85 -1 -1 по сезону 1019.8 1019.3
00 9.12 штиль 0 4000 м дымка 10/10 600 м
[Sc]
+1.1 -0.5 89 -0 -0 по сезону 1019.3 1018.8
03 9.12 ЮВ 1 4000 м дымка 10/10 600 м
[Cb calv]
+1.8 -0.1 87 0 0 по сезону 1018.0 1017.5 -0.1
06 9.12 ЮВ 1 10 км {ливн. осадки} 10/10 600 м
[Sc diur, vesp]
+2.5 -0.5 81 +1 +1 по сезону 1017.7 1017.2
09 9.12 ЮВ 3 10 км 8/6 600 м
[Sc Ac trans Ci fib]
+8.6 +1.3 60 +6 +7 тепло 1016.5 1016.0
12 9.12 ЮВ 2 10 км 10/3 600 м
[Sc Ac trans Ci fib]
+7.8 +2.4 69 +6 +6 тепло 1015.2 1014.7
15 9.12 штиль 0 10 км 10/10 600 м
[Sc]
+5.9 +1.9 75 +5 +5 тепло 1014.5 1014.0 +9.5 0.0
18 9.12 ЮВ 1 10 км 10/10 600 м
[Sc]
+4.7 +1.1 77 +4 +4 тепло 1013.7 1013.2
21 9.12 В 1 10 км 10/10 600 м
[Sc]
+3.9 +1.1 82 +3 +3 тепло 1012.5 1012.0
00 10.12 В 1 4000 м дымка 10/10 600 м
[Sc]
+1.7 0.0 88 -0 -0 по сезону 1011.6 1011.1
03 10.12 В 2 4000 м дымка 8/0
[Ac trans]
+1.7 -0.1 88 -2 -2 по сезону 1010.0 1009.5 +1.4
06 10.12 В 3 10 км 10/10 600 м
[Sc]
+2.5 +0.3 85 -2 -2 по сезону 1009.5 1009.0
09 10.12 ЮВ 1 10 км слабый ливневой дождь 10/10 600 м
[Cb calv]
+4.0 +1.8 86 +3 +3 тепло 1008.4 1007.9
12 10.12 ЮВ 2 4000 м слабый ливневой дождь 10/10 600 м
[Cb calv]
+5.1 +4.1 93 +2 +2 по сезону 1007.8 1007.3
15 10.12 ЮВ 2 4000 м дымка {ливн. осадки} 10/10 600 м
[Sc]
+6.6 +5.8 95 +4 +4 тепло 1008.0 1007.5 +7.1 4
18 10.12 ЮВ 1 4000 м дымка {ливн. осадки} 10/0
[Ac und]
+7.3 +6.5 95 +6 +6 тепло 1008.2 1007.7
21 10.12 штиль 0 4000 м дымка 10/10 600 м
[Sc]
+7.0 +6.2 95 +6 +6 тепло 1008.5 1008.0
00 11.12 В 1 4000 м дымка 10/10 600 м
[Sc]
+5.5 +4.7 95 +4 +4 тепло 1008.3 1007.8
03 11.12 В 3 10 км 6/6 600 м
[Sc]
+3.9 +1.3 83 0 0 по сезону 1006.9 1006.4 +3.6
06 11.12 В 3 10 км 10/8 600 м
[Sc Ac trans]
+4.2 +1.3 81 +1 +1 по сезону 1005.7 1005.2
09 11.12 В 3 10 км слабый ливневой дождь 10/10 600 м
[Cb calv]
+5.2 +2.6 83 +2 +2 по сезону 1004.3 1003.8
12 11.12 В 4 4000 м слабый ливневой дождь 10/10 600 м
[Cb calv]
+5.0 +3.2 88 +1 +1 по сезону 1002.0 1001.5
15 11.12 В 5
{12}
4000 м в посл. час ливневой дождь 10/10 600 м
[Cb calv]
+5.5 +3.9 89 +1 +1 по сезону 1001.9 1001.4 +5.5 4
18 11.12 В 4 4000 м дымка {ливн. осадки} 10/0
[Ac trans]
+6.1 +4.3 88 +2 +2 тепло 1001.5 1001.0
21 11.12 Ю 3-12
{15}
10 км 6/0
[Ac trans]
+6.7 +4.3 85 +4 +4 тепло 1001.2 1000.8
00 12.12 ЮЗ 1
{12}
4000 м дымка {ливн. осадки} 6/6 600 м
[Cb calv]
+5.4 +4.3 93 +4 +4 тепло 1003.6 1003.1
03 12.12 ЮЗ 4-12
{12}
10 км {ливн. осадки} 8/8 600 м
[Cb calv]
+3.1 +0.4 82 -2 -2 по сезону 1004.9 1004.4 +3.1 1
06 12.12 ЮЗ 4-11
{13}
10 км {ливн. осадки} 10/10 300 м
[Frnb]
+3.1 +0.3 82 -2 -2 по сезону 1007.6 1007.1 +3.1
09 12.12 З 2
{13}
10 км 10/10 600 м
[Sc]
+3.4 +0.5 81 +1 +1 по сезону 1008.7 1008.2
12 12.12 З 2
{10}
10 км 10/10 600 м
[Sc]
+3.6 +0.4 80 +1 +1 по сезону 1010.3 1009.8
15 12.12 З 1 10 км 10/10 600 м
[Sc]
+3.5 +1.0 84 +2 +2 по сезону 1011.9 1011.4 +3.7
18 12.12 штиль 0 10 км 10/10 600 м
[Sc]
+3.5 +0.7 82 +3 +3 тепло 1013.8 1013.3
21 12.12 штиль 0 10 км 3/3 600 м
[Sc]
+2.9 -0.5 78 +2 +2 тепло 1014.4 1013.9
00 13.12 штиль 0 4000 м дымка ясно +1.6 +0.1 90 0 0 по сезону 1015.9 1015.4
03 13.12 штиль 0 4000 м дымка ясно +0.6 -0.3 94 -1 -1 по сезону 1017.0 1016.5 0.0
06 13.12 штиль 0 4000 м дымка 8/3 600 м
[Sc Ac trans]
+1.5 +0.5 93 0 0 по сезону 1018.4 1017.9 -0.6

 

Местоположение метеостанции Приморско-Ахтарск (Краснодарский край, Россия): широта 46.03 долгота 38.15 высота над уровнем моря 4 м.

В архиве по умолчанию представлена погода в Приморско-Ахтарске за последнюю неделю. Архивные данные за месяц целиком и за предыдущие месяцы, начиная с января 2011 года, Вы можете получить, выбрав интересующий диапазон дат из раскрывающегося списка и нажав кнопку "Ввод!".


*Определитесь, кто Вы:
робот инопланетянин человек

Внимание! Время в таблицах - всемирное. Для получения местного времени необходимо прибавить поправку, которая в Приморско-Ахтарске равна 3 ч.

Смотрите также архив погоды в соседних городах и на ближайших метеорологических станциях:

Погода в Каневской (Краснодарский край, Россия) (63 км)
Погода в Тимашевске (Краснодарский край, Россия) (75 км)
Погода в Должанке (Краснодарский край, Россия) (79 км)
Погода в Славянске-на-Кубани (Краснодарский край, Россия) (83 км)
Погода в Ейске (Краснодарский край, Россия) (86 км)
Погода в Староминская (Краснодарский край, Россия) (87 км)
Погода в Темрюке (Краснодарский край, Россия) (99 км)
Погода в Маргаритово (Ростовская область, Россия) (114 км)
Погода в Кореновске (Краснодарский край, Россия) (121 км)
Погода в Мариуполе (Донецкая область, Украина) (122 км)

Пояснения к столбцам:

Ветер - указаны скорость ветра в м/с - средняя за 10 мин, порывы в срок и между сроками (в фигурных скобках) и направление, откуда дует ветер: С - северный, СВ - северо-восточный, В - восточный, ЮВ - юго-восточный, Ю - южный, ЮЗ - юго-западный, З - западный, СЗ - северо-западный.
Видимость - горизонтальная дальность видимости в метрах или километрах. При видимости от 1 до 10 км при отсутствии осадков обычно наблюдается дымка, при ухудшении видимости до 1 км и менее - туман. В сухую погоду видимость может ухудшаться дымом, пылью или мглою.
Явления - указаны атмосферные явления, наблюдавшиеся в срок или в последний час перед сроком; фигурными скобками обозначены явления, наблюдавшиеся между сроками (за 1-3 часа до срока); квадратными скобками обозначены град или гололедные отложения с указанием их диаметра в мм.
Облачность - указаны через наклонную черту общая и нижняя облачность в баллах и высота нижней границы облаков в метрах; квадратными скобками обозначены формы облаков: Ci - перистые, Cs - перисто-слоистые, Cc - перисто-кучевые, Ac - высококучевые, As - высокослоистые, Sc - слоисто-кучевые, Ns - слоисто-дождевые, Cu - кучевые, Cb - кучево-дождевые. Подробнее классификацию облаков см. в Атласе облаков (PDF).
T - Температура воздуха - температура, измеренная на высоте 2 м над землей.
Td - Температура точки росы - температура, при понижении до которой содержащийся в воздухе водяной пар достигнет насыщения.
f - Относительная влажность воздуха - влажноcть воздуха, измеренная на высоте 2 м над землей.
Te - Эффективная температура - температура, которую ощущает одетый по сезону человек в тени. Характеристика душности погоды. При расчете учитывается влияние влажности воздуха и скорости ветра на теплоощущения человека.
Tes - Эффективная температура на солнце - температура, которую ощущает человек, с поправкой на солнечный нагрев. Характеристика знойности погоды. Зависит от высоты солнца над горизонтом, облачности и скорости ветра. Ночью, в пасмурную погоду, а также при ветре 12 м/с и более поправка равна нулю.
P - Атмосферное давление - приведенное к уровню моря атмосферное давление.
Po - Атмосферное давление - измеренное на уровне метеостанции атмосферное давление.
Tmin - Минимальная температура - минимум температуры воздуха на высоте 2 м над землей.
Tmax - Максимальная температура - максимум температуры воздуха на высоте 2 м над землей.
R - Количество осадков - Количество выпавших осадков за период времени, мм. При наведении курсора мыши на число - период времени, за который выпало указанное количество осадков.
R24 - Количество осадков - Количество выпавших осадков за 24 часа, мм.
S - Снежный покров - Высота снежного покрова, см. При наведении курсора мыши на число - состояние снежного покрова и степень покрытия местности в баллах.